TimeCDT,TemperatureF,Dew PointF,Humidity,Sea Level PressureIn,VisibilityMPH,Wind Direction,Wind SpeedMPH,Gust SpeedMPH,PrecipitationIn,Events,Conditions,WindDirDegrees,DateUTC
12:52 AM,50.0,37.9,63,29.89,8.0,Calm,Calm,-,N/A,,Clear,0,2012-10-01 05:52:00
1:52 AM,50.0,37.0,61,29.89,8.0,WSW,3.5,-,N/A,,Clear,240,2012-10-01 06:52:00
2:52 AM,46.9,36.0,66,29.88,8.0,SW,6.9,-,N/A,,Clear,230,2012-10-01 07:52:00
3:52 AM,44.1,35.1,71,29.88,9.0,NW,6.9,-,N/A,,Clear,310,2012-10-01 08:52:00
4:52 AM,51.1,39.0,63,29.88,10.0,NW,11.5,-,N/A,,Clear,310,2012-10-01 09:52:00
5:52 AM,57.0,44.1,62,29.89,9.0,NNW,10.4,-,N/A,,Clear,330,2012-10-01 10:52:00
6:52 AM,55.9,45.0,67,29.90,9.0,NNW,9.2,-,N/A,,Clear,340,2012-10-01 11:52:00
7:52 AM,57.0,46.0,67,29.92,9.0,NNW,15.0,-,N/A,,Clear,340,2012-10-01 12:52:00
8:52 AM,60.1,46.0,60,29.94,9.0,NNW,16.1,23.0,N/A,,Clear,340,2012-10-01 13:52:00
9:52 AM,64.9,45.0,48,29.95,9.0,North,20.7,24.2,N/A,,Clear,350,2012-10-01 14:52:00
10:52 AM,66.9,44.1,44,29.96,10.0,NNW,20.7,-,N/A,,Clear,340,2012-10-01 15:52:00
11:52 AM,66.0,39.9,38,29.97,10.0,North,20.7,27.6,N/A,,Clear,350,2012-10-01 16:52:00
12:52 PM,66.9,37.0,33,29.96,10.0,NNW,18.4,29.9,N/A,,Partly Cloudy,340,2012-10-01 17:52:00
1:52 PM,71.1,36.0,28,29.94,10.0,North,23.0,34.5,N/A,,Clear,360,2012-10-01 18:52:00
2:52 PM,71.1,37.9,30,29.93,10.0,North,21.9,32.2,N/A,,Clear,360,2012-10-01 19:52:00
3:52 PM,71.1,37.9,30,29.93,10.0,North,23.0,32.2,N/A,,Clear,350,2012-10-01 20:52:00
4:52 PM,70.0,36.0,29,29.93,10.0,NNW,25.3,31.1,N/A,,Clear,330,2012-10-01 21:52:00
5:52 PM,68.0,32.0,26,29.94,10.0,NNW,23.0,29.9,N/A,,Clear,340,2012-10-01 22:52:00
6:52 PM,64.0,30.0,28,29.95,10.0,North,13.8,-,N/A,,Clear,350,2012-10-01 23:52:00
7:52 PM,57.9,30.0,35,29.96,10.0,NNW,9.2,-,N/A,,Clear,340,2012-10-02 00:52:00
8:52 PM,52.0,30.0,43,29.97,10.0,NNW,10.4,-,N/A,,Clear,330,2012-10-02 01:52:00
10:52 PM,51.1,28.9,43,29.97,10.0,NNW,10.4,-,N/A,,Clear,330,2012-10-02 03:52:00
11:52 PM,48.0,28.9,48,29.97,10.0,NNW,8.1,-,N/A,,Clear,330,2012-10-02 04:52:00